Погода Островное

Погода Островное : погода сейчас, прогноз погоды и архив. Всё, что Вы хотите узнать о погоде Островное!

Поиск расширенной информации на нашем сайте:

Полезная информация: стеклянные торговые витрины

Другие новости

Новости СМИ2

Главная страница сайта

Новости сайта

02.10.2013

Напоминаем, что на нашем новом сайте вы можете получить высокодетализированные прогнозы погоды по пунктам России, СНГ и мира (включающие важные для авиации метеовеличины, такие как направление и скорость ветра, видимость, явления погоды, количество и форма облачности, нижняя и верхняя граница облачности), а также ознакомиться с разнообразными материалами по авиационной метеорологии и подборкой полезных ссылок на эту тему.

Сайт Метеоцентр.Азия посвящён разработке технологий оптимизации авиаметеорологического обслуживания, включая проектирование и перспективное создание нескольких автоматизированных авиаметеорологических систем:
- система выпуска высокодетальных прогностических карт явлений погоды для нижнего воздушного пространства по России и ближнему зарубежью;
- система верификации прогнозов TAF (выпускаемых синоптиками официальных АМСГ РФ и ближнего зарубежья) и AUTOTAF (выпускаемых сайтом Метеоцентр.Азия) - выявление ошибок, онлайн-сопоставление с фактической погодой METAR, автоматическое внесение коррективов в прогнозы при резком отклонении фактической погоды от прогноза, подсчёт оправдываемости прогнозов по элементам и в целом;
- система обработки, анализа и отображения авиаметеорологической информации для применения провайдерами метеорологической информации.

Рекомендуем: Описание день рождения на природе у нас.

Погода Островное - сегодня

Время (UTC), дата Ветер
(°,м/с) 
Видим.   Явления Облачность Т
(°С)
Тd
(°С)
f(%) Тe
(°С)
Pmin
(гПа)
dP
(гПа)
Po
(мм)
O2
(г/м3)
Тmin Tmax R s Состояние
почвы
18 13.01.17 110 (В) 2{04}  20000 м  ледяные иглы{снег}  3/0 верхняя 
[Ci fib]
-38.3 -42.3 66 -43  1042.4  -1.8  771  364           
21 13.01.17 200 (Ю) 2{04}  20000 м  ледяные иглы{снег}  3/0 верхняя 
[Ci fib]
-38.8 -43.8 59 -43  1040.3  -2.1  770  364  -40.6      30  равномерный
сухой снег
100% 
00 14.01.17 120 (ЮВ) 1{05}  20000 м  ледяные иглы{снег}  ясно 
-38.3 -43 61 -39  1039.1  -1.2  769  362           
03 14.01.17 090 (В) 1{05}  20000 м  {снег}  10/0 средняя, верхняя 
[Ac trans|Ci fib]
-36.6 -40.7 66 -38  1036.9  -2.1  767  359           
06 14.01.17 тихо () {04}  20000 м  ледяные иглы{снег}  10/0 средняя, верхняя 
[Ac trans|Ci fib]
-37.7 -41.8 66 -38  1036.1  -0.8  767  360           
09 14.01.17 тихо () {03}  20000 м  ледяные иглы{снег}  6/3 600 м средняя 
[Sc|Ac trans]
-39.2 -43.8 62 -39  1035.9  -0.3  766  363    -36.5       
12 14.01.17 060 (СВ) 1{03}  20000 м  ледяные иглы{снег}  4/0 верхняя 
[Ci fib]
-40.3 -45.3 59 -42  1036.4  0.5  767  365           
15 14.01.17 140 (ЮВ) 1{02}  20000 м  ледяные иглы{снег}  10/0 верхняя 
[Cs]
-40.6 -45.3 61 -42  1036.3  -0.1  767  365           
18 14.01.17 120 (ЮВ) 1{02}  20000 м  ледяные иглы{снег}  10/0 верхняя 
[Cs]
-41.2 -45.8 61 -42  1037.5  767  366           
21 14.01.17 120 (ЮВ) 1{05}  20000 м  {снег}  10/6 600 м средняя 
[Sc|Ac As]
-40.5 -45.3 60 -42  1038.2  0.8  768  365  -41.9      31  равномерный
сухой снег
100% 
00 15.01.17 110 (В) 2{03}  20000 м  ледяные иглы{снег}  10/0 средняя, верхняя 
[Ac lent|Cs]
-40 -44.8 60 -45  1038.6  0.4  768  365           
03 15.01.17 100 (В) 1{02}  10 км  слаб. снег  10/5 600 м средняя, верхняя 
[Sc|Ac trans|Cs]
-38.5 -43.4 60 -40  1038.3  -0.2  768  362           
06 15.01.17 110 (В) 1{02}  20000 м  ледяные иглы{снег}  6/0 средняя, верхняя 
[Ac lent|Ci fib]
-40.5 -45.3 60 -42  1038.6  0.2  768  366           
09 15.01.17 100 (В) 1{02}  20000 м  слаб. снег  10/6 600 м верхняя 
[Sc|Cs]
-39.5 -44.3 60 -41  1038.1  -0.5  768  364    -38.3  0.3     
12 15.01.17 050 (СВ) 1{02}  20000 м  слаб. снег  10/6 600 м средняя, верхняя 
[Sc|Ac trans|Cs]
-37 -41.1 66 -38  1037.6  -0.4  768  360           
15 15.01.17 100 (В) 1{02}  20000 м  слаб. снег  10/8 600 м средняя, верхняя 
[Sc|Ac trans|Cs]
-35 -39.4 64 -36  1036.6  -0.9  767  357           
18 15.01.17 110 (В) 1{02}  10 км  слаб. снег  10/8 600 м средняя 
[Sc|As op]
-34.4 -38.8 64 -35  1035.1  -1.3  766  355           
21 15.01.17 120 (ЮВ) 1{02}  20000 м  слаб. снег  10/5 600 м средняя, верхняя 
[Sc|Ac trans|Cs]
-34.1 -38.5 64 -35  1034.3  -0.8  765  354  -39.5    0.4  31  равномерный
сухой снег
100% 
00 16.01.17 350 (С) 1{02}  4000 м  слаб. снег  10/8 600 м средняя 
[Sc|As op]
-33 -36.7 69 -34  1033.6  -0.7  765  353           
03 16.01.17 090 (В) 1{03}  4000 м  слаб. снег  10/8 600 м средняя 
[Sc|As op]
-31.8 -35.4 70 -33  1031.8  -1.6  764  350           
06 16.01.17 280 (З) 2{05}  20000 м  слаб. снег  10/8 600 м средняя 
[Sc|As op]
-27.8 -31.7 69 -31  1030.8  -0.8  763  344           
09 16.01.17 080 (В) 2{09}  20000 м  {снег}  10/8 600 м средняя 
[Sc|As op]
-27.1 -30.9 70 -31  1030.5  -0.3  763  343    -26.2  0.9     
12 16.01.17 130 (ЮВ) 2{09}  20000 м  {снег}  10/9 600 м средняя 
[Sc|As op]
-26.4 -30.2 70 -30  1030.1  -0.2  763  342           
15 16.01.17 300 (СЗ) 4{09}  20000 м    10/8 600 м средняя 
[Sc|Ac As]
-24.1 -29.9 59 -30  1028.8  -0.3  762  338           
18 16.01.17 320 (СЗ) 2{09}  20000 м  слаб. снег  10/8 600 м средняя 
[Sc|As op]
-24.1 -28.1 69 -27  1027.9  -0.9  761  338           
Время (UTC), дата Ветер
(°,м/с) 
Видим.   Явления Облачность Т
(°С)
Тd
(°С)
f(%) Тe
(°С)
Pmin
(гПа)
dP
(гПа)
Po
(мм)
O2
(г/м3)
Тmin Tmax R s Состояние
почвы

Для получения пояснительной информации подведите курсор к названию столбца.

ПОГОДА Островное - архив

Всё, что Вы хотите узнать о погоде Островное - удобно и подробно!

Выберите нужную дату (начиная с 1 января 2015* года) и нажмите кнопку "Найти".
Будут отображены архивные сводки погоды по пункту Островное, начиная с указанной даты.


Отображать данные в формате CSV (для использования в таблицах Excel)


Внимание! Наш архив погоды предназначен исключительно для личного некоммерческого использования в познавательных целях. Если Вам необходимы официальные справки о состоянии погоды (для производственных, юридических, коммерческих и т.п. целей), обращайтесь в органы Росгидромета.

*Примечание: данная дата относится к архиву по метеостанциям СССР (Россия, СНГ, Балтия).
Архив по метеостанциям Зарубежной Европы и Азии (кроме Китая) хранится 10 дней, по другим регионам земного шара (Китай, Африка, Америка, Австралия, Океания) - 1 день.

Островное - район местоположения метеостанции


Название, широта, долгота, высота метеостанции:
Островное 68.12°ш. 164.16°д. 94 м над ур. моря [Российская Федерация]

Дополнительная информация

В oтличие oт бoльшинства пoгoдных сайтoв мы публикуем пoдрoбную метеoинфoрмацию в детальнoм прoфессиoнальнoм фoрмате.

Характеристики температуры и влажнoсти вoздуха измеряются на высoте 2 м в тени вдали oт зданий и деревьев.
Скoрoсть ветра измеряется на высoте 10 м (на урoвне рoста челoвека скoрoсть ветра ниже в 1.5-2 раза). Если метеoстанция нахoдится в гoрoде или в лесу, тo скoрoсть ветра занижена на 2-4 м/с пo сравнению с oткрытым местoм. Скoрoсть ветра над акватoриями крупных рек и oзёр, а также на вершинах хoлмoв на 2-5 м/с выше, чем в oбычных услoвиях.
Атмoсфернoе давление в разных тoчках местнoсти мoжет значительнo oтличаться oт давления на метеoстанции, в зависимoсти oт услoвий рельефа (при пoдъёме на 10 м давление пoнижается примернo на 1 мм рт.ст.).